Terminal Aerodrome Forecast
Issued by NWS St Louis, MO

Home | Current Version | Previous Version | Text Only | Print | Product List | Glossary On
Versions: 1 2 3 4 5 6 7 8 9 10 11 12 13 14 15 16 17 18 19 20 21 22 23 24 25 26 27 28 29 30 31 32 33 34 35 36 37 38
000
FTUS43 KLSX 202340
TAFSTL
TAF
KSTL 202340Z 2100/2206 VRB05KT P6SM BKN250
     FM210200 25005KT P6SM VCTS BKN050CB
     FM211000 25005KT P6SM VCSH BKN050
     FM212200 27005KT P6SM SCT070=

USA.gov is the U.S. government's official web portal to all federal, state and local government web resources and services.